Date String (YYYY-MM-DD hh:mm:ss) UTC,Instrument flags,absolute air pressure of the measurement (hPa),sample flow rate (lpm),inlet stack bypass flow (lpm),air temperature of the measurement (°C),ambient temperature measured by the external sensor (°C),aerosol sample conditioner tube jacket temperature (°C),OPC LED temperature (°C),internal box temperature (°C),relative humidity of the measurement (%),span deviation,mass concentration of particles derived from Lorenz-Mie calculation of OPC scattering (μg/m³),mass concentration of particles derived from Lorenz-Mie calculation of OPC scattering (μg/m³),mass concentration of particles derived from Lorenz-Mie calculation of OPC scattering (μg/m³)
DateTimeUTC,F1_M11,P_M11,Q1_M11,Q2_M11,T1_M11,T2_M11,T3_M11,T4_M11,T5_M11,U1_M11,ZSPAN_M11,X0_M11,X2_M11,X1_M11
2023-07-01 03:00:00,SystemResetWarning,0834.3,5.00,000.00,029.3,027.5,000.0,037.9,030.8,31.0,0000.0,0017.47,0005.08,0003.79
2023-07-01 03:01:00,SystemResetWarning,0834.3,5.00,000.00,029.3,027.6,000.0,037.9,030.9,30.8,0000.0,0019.82,0005.13,0003.79
2023-07-01 03:02:00,SystemResetWarning,0834.3,5.00,000.00,029.3,027.8,000.0,037.9,030.9,30.8,0000.0,0021.45,0005.19,0003.79
2023-07-01 03:03:00,SystemResetWarning,0834.4,5.00,000.00,029.4,027.9,000.0,037.9,030.9,30.8,0000.0,0022.26,0005.24,0003.79
2023-07-01 03:04:00,SystemResetWarning,0834.4,5.01,000.00,029.4,028.0,000.0,037.9,031.0,30.7,0000.0,0021.65,0005.25,0003.79
2023-07-01 03:05:00,SystemResetWarning,0834.5,5.00,000.00,029.4,028.1,000.0,037.9,031.0,30.5,0000.0,0021.15,0005.30,0003.80
2023-07-01 03:06:00,SystemResetWarning,0834.5,5.00,000.00,029.4,028.2,000.0,037.9,031.0,30.3,0000.0,0018.97,0005.28,0003.79
2023-07-01 03:07:00,SystemResetWarning,0834.5,4.99,000.00,029.5,028.3,000.0,038.0,031.1,30.3,0000.0,0018.15,0005.24,0003.77
2023-07-01 03:08:00,SystemResetWarning,0834.5,5.00,000.00,029.5,028.3,000.0,038.0,031.1,30.2,0000.0,0017.57,0005.15,0003.76
2023-07-01 03:09:00,SystemResetWarning,0834.5,4.99,000.00,029.5,028.4,000.0,038.0,031.1,30.1,0000.0,0016.69,0005.15,0003.76
2023-07-01 03:10:00,SystemResetWarning,0834.6,5.00,000.00,029.5,028.4,000.0,038.0,031.1,29.9,0000.0,0017.71,0005.24,0003.78
2023-07-01 03:11:00,SystemResetWarning,0834.8,5.00,000.00,029.6,028.4,000.0,038.0,031.2,29.9,0000.0,0017.49,0005.27,0003.77
2023-07-01 03:12:00,SystemResetWarning,0834.7,5.00,000.00,029.6,028.5,000.0,038.0,031.2,29.9,0000.0,0015.37,0005.22,0003.75
2023-07-01 03:13:00,SystemResetWarning,0835.1,5.00,000.00,029.6,028.5,000.0,038.1,031.2,29.8,0000.0,0013.91,0005.11,0003.74
2023-07-01 03:14:00,SystemResetWarning,0834.9,5.00,000.00,029.6,028.5,000.0,038.1,031.2,29.4,0000.0,0012.62,0005.07,0003.74
2023-07-01 03:15:00,SystemResetWarning,0835.0,5.01,000.00,029.7,028.5,000.0,038.1,031.2,29.6,0000.0,0011.83,0005.04,0003.74
2023-07-01 03:16:00,SystemResetWarning,0834.8,5.00,000.00,029.7,028.6,000.0,038.1,031.3,29.4,0000.0,0011.71,0004.99,0003.72
2023-07-01 03:17:00,SystemResetWarning,0834.7,5.00,000.00,029.7,028.6,000.0,038.2,031.3,29.2,0000.0,0012.87,0004.98,0003.70
2023-07-01 03:18:00,SystemResetWarning,0834.7,4.99,000.00,029.7,028.6,000.0,038.2,031.3,29.1,0000.0,0012.93,0004.94,0003.69
2023-07-01 03:19:00,SystemResetWarning,0834.9,5.00,000.00,029.7,028.6,000.0,038.2,031.3,28.9,0000.0,0013.48,0004.94,0003.68
2023-07-01 03:20:00,SystemResetWarning,0835.1,4.99,000.00,029.8,028.2,000.0,038.2,031.3,28.7,0000.0,0013.63,0004.85,0003.65
2023-07-01 03:21:00,SystemResetWarning,0835.2,4.99,000.00,029.7,026.2,000.0,038.1,031.2,28.7,0000.0,0012.90,0004.70,0003.61
2023-07-01 03:22:00,SystemResetWarning,0835.1,4.99,000.00,029.7,025.1,000.0,038.0,030.9,28.8,0000.0,0011.75,0004.56,0003.58
2023-07-01 03:23:00,SystemResetWarning,0835.1,5.01,000.00,029.5,025.1,000.0,038.0,030.6,29.3,0000.0,0011.72,0004.55,0003.59
2023-07-01 03:24:00,SystemResetWarning,0835.2,5.01,000.00,029.4,025.5,000.0,038.0,030.5,29.9,0000.0,0010.86,0004.51,0003.57
2023-07-01 03:25:00,SystemResetWarning,0835.1,5.00,000.00,029.3,025.9,000.0,038.0,030.6,29.5,0000.0,0010.75,0004.45,0003.55
2023-07-01 03:26:00,SystemResetWarning,0834.8,5.00,000.00,029.3,026.3,000.0,038.0,030.6,29.4,0000.0,0010.66,0004.38,0003.51
2023-07-01 03:27:00,SystemResetWarning,0834.7,5.00,000.00,029.3,026.7,000.0,038.0,030.7,29.4,0000.0,0010.55,0004.30,0003.47
2023-07-01 03:28:00,SystemResetWarning,0834.7,5.00,000.00,029.3,026.9,000.0,037.9,030.7,28.3,0000.0,0009.60,0004.19,0003.44
2023-07-01 03:29:00,SystemResetWarning,0834.7,5.00,000.00,029.3,027.2,000.0,037.9,030.8,28.5,0000.0,0008.98,0004.14,0003.42
2023-07-01 03:30:00,SystemResetWarning,0834.7,5.00,000.00,029.3,027.4,000.0,037.9,030.8,28.5,0000.0,0008.70,0004.09,0003.40
2023-07-01 03:31:00,SystemResetWarning,0834.8,5.00,000.00,029.3,027.6,000.0,037.9,030.8,28.1,0000.0,0008.04,0004.00,0003.39
2023-07-01 03:32:00,SystemResetWarning,0834.8,5.00,000.00,029.3,027.7,000.0,037.9,030.9,28.0,0000.0,0007.53,0003.95,0003.37
2023-07-01 03:33:00,SystemResetWarning,0835.0,5.00,000.00,029.4,027.8,000.0,037.9,030.9,28.1,0000.0,0007.52,0003.94,0003.36
2023-07-01 03:34:00,SystemResetWarning,0835.4,4.99,000.00,029.4,027.9,000.0,037.9,031.0,28.1,0000.0,0007.95,0003.88,0003.34
2023-07-01 03:35:00,SystemResetWarning,0835.1,5.00,000.00,029.4,028.0,000.0,038.0,031.0,27.9,0000.0,0008.33,0003.82,0003.33
2023-07-01 03:36:00,SystemResetWarning,0834.9,5.01,000.00,029.4,028.1,000.0,038.0,031.0,28.0,0000.0,0008.32,0003.83,0003.33
2023-07-01 03:37:00,SystemResetWarning,0835.0,5.00,000.00,029.4,028.1,000.0,038.0,031.0,28.1,0000.0,0008.33,0003.83,0003.33
2023-07-01 03:38:00,SystemResetWarning,0835.0,5.00,000.00,029.5,028.2,000.0,038.0,031.0,28.2,0000.0,0008.26,0003.81,0003.33
2023-07-01 03:39:00,SystemResetWarning,0835.0,5.00,000.00,029.5,028.2,000.0,038.0,031.1,27.8,0000.0,0008.24,0003.81,0003.33
2023-07-01 03:40:00,SystemResetWarning,0835.0,4.99,000.00,029.5,028.3,000.0,038.0,031.1,27.4,0000.0,0008.23,0003.82,0003.32
2023-07-01 03:41:00,SystemResetWarning,0835.0,5.00,000.00,029.5,028.3,000.0,038.0,031.1,27.1,0000.0,0007.96,0003.80,0003.31
2023-07-01 03:42:00,SystemResetWarning,0835.0,5.00,000.00,029.6,028.3,000.0,038.0,031.1,27.0,0000.0,0007.92,0003.79,0003.31
2023-07-01 03:43:00,SystemResetWarning,0835.0,5.00,000.00,029.6,028.3,000.0,038.1,031.1,27.0,0000.0,0007.87,0003.76,0003.29
2023-07-01 03:44:00,SystemResetWarning,0834.9,5.01,000.00,029.6,028.4,000.0,038.1,031.1,26.8,0000.0,0007.86,0003.73,0003.28
2023-07-01 03:45:00,SystemResetWarning,0834.9,5.00,000.00,029.6,028.4,000.0,038.1,031.2,26.7,0000.0,0007.31,0003.71,0003.26
2023-07-01 03:46:00,SystemResetWarning,0835.0,5.00,000.00,029.6,028.4,000.0,038.1,031.2,26.5,0000.0,0006.35,0003.69,0003.24
2023-07-01 03:47:00,SystemResetWarning,0834.9,5.01,000.00,029.6,028.4,000.0,038.1,031.2,26.5,0000.0,0006.07,0003.65,0003.22
2023-07-01 03:48:00,SystemResetWarning,0834.9,5.00,000.00,029.7,028.5,000.0,038.1,031.2,26.4,0000.0,0005.93,0003.63,0003.20
2023-07-01 03:49:00,SystemResetWarning,0835.0,5.00,000.00,029.7,028.5,000.0,038.2,031.2,26.0,0000.0,0005.85,0003.62,0003.19
2023-07-01 03:50:00,SystemResetWarning,0835.0,5.00,000.00,029.7,028.5,000.0,038.2,031.3,25.7,0000.0,0005.84,0003.62,0003.19
2023-07-01 03:51:00,SystemResetWarning,0835.0,5.00,000.00,029.7,028.5,000.0,038.2,031.3,25.7,0000.0,0005.68,0003.59,0003.18
2023-07-01 03:52:00,SystemResetWarning,0835.0,5.00,000.00,029.7,028.5,000.0,038.2,031.3,25.9,0000.0,0005.49,0003.57,0003.19
2023-07-01 03:53:00,SystemResetWarning,0834.9,5.00,000.00,029.7,028.5,000.0,038.2,031.3,26.2,0000.0,0005.43,0003.57,0003.19
2023-07-01 03:54:00,SystemResetWarning,0835.0,5.00,000.00,029.8,028.6,000.0,038.2,031.3,26.4,0000.0,0005.72,0003.61,0003.19
2023-07-01 03:55:00,SystemResetWarning,0835.0,5.00,000.00,029.8,028.6,000.0,038.3,031.3,26.6,0000.0,0005.59,0003.61,0003.19
2023-07-01 03:56:00,SystemResetWarning,0835.0,5.00,000.00,029.8,028.6,000.0,038.3,031.4,26.6,0000.0,0005.51,0003.59,0003.19
2023-07-01 03:57:00,SystemResetWarning,0835.0,5.00,000.00,029.8,028.6,000.0,038.3,031.3,26.8,0000.0,0005.61,0003.60,0003.19
2023-07-01 03:58:00,SystemResetWarning,0835.0,5.00,000.00,029.8,028.5,000.0,038.3,031.4,26.9,0000.0,0005.58,0003.59,0003.19
2023-07-01 03:59:00,SystemResetWarning,0834.9,4.99,000.00,029.8,027.0,000.0,038.2,031.3,27.1,0000.0,0005.40,0003.57,0003.19
